This demonstration page uses our WeatherBlox Daily Observations layout. Learn more.

Left ArrowRight Arrow

Hourly Observations for June 28, 2019

Temp ( °F °C ) Dew Point ( °F °C ) Humidity (%) Winds ( mph kmh ) Pressure ( in mb ) Visibility ( mi km ) Precip ( " mm )
12:51 am 00:51 Clear 82 27.8 35 1.7 18 18 E 7 11 29.84 1011 10 16 0.00 0.00
1:51 am 01:51 Clear 83 28.3 41 5 23 23 E 8 13 29.83 1010 10 16 0.00 0.00
2:51 am 02:51 Clear 84 28.9 45 7.2 25 25 ESE 7 11 29.83 1010 10 16 0.00 0.00
3:51 am 03:51 Clear 80 26.7 46 7.8 30 30 SSE 10 17 29.85 1011 10 16 0.00 0.00
4:51 am 04:51 Clear 80 26.7 46 7.8 30 30 SSE 12 19 29.88 1012 10 16 0.00 0.00
5:51 am 05:51 Sunny 79 26.1 47 8.3 32 32 SE 7 11 29.91 1013 10 16 0.00 0.00
6:51 am 06:51 Sunny 83 28.3 48 8.9 30 30 E 8 13 29.92 1013 10 16 0.00 0.00
7:51 am 07:51 Sunny 87 30.6 49 9.4 27 27 SE 10 17 29.93 1013 10 16 0.00 0.00
8:51 am 08:51 Sunny 89 31.7 48 8.9 24 24 E 7 11 29.92 1013 10 16 0.00 0.00
9:51 am 09:51 Mostly Sunny 95 35 49 9.4 21 21 SSW 9 15 29.89 1012 10 16 0.00 0.00
10:51 am 10:51 Sunny 97 36.1 49 9.4 20 20 Calm 29.86 1011 10 16 0.00 0.00
11:51 am 11:51 Sunny 100 37.8 46 7.8 16 16 Calm 29.83 1010 10 16 0.00 0.00
12:51 pm 12:51 Sunny 102 38.9 43 6.1 13 13 ESE 8 13 29.80 1009 10 16 0.00 0.00
1:51 pm 13:51 Mostly Sunny 101 38.3 43 6.1 14 14 E 6 9 29.77 1008 10 16 0.00 0.00
2:51 pm 14:51 Cloudy 106 41.1 42 5.6 11 11 NNW 7 11 29.73 1007 10 16 0.00 0.00
3:51 pm 15:51 Mostly Cloudy 105 40.6 40 4.4 11 11 W 15 24 29.71 1006 10 16 0.00 0.00
4:51 pm 16:51 Sunny 105 40.6 42 5.6 12 12 W 16 26 29.70 1006 10 16 0.00 0.00
5:51 pm 17:51 Cloudy 103 39.4 41 5 12 12 W 15 24 29.70 1006 10 16 0.00 0.00
6:51 pm 18:51 Mostly Cloudy 100 37.8 40 4.4 13 13 WNW 13 20 29.72 1006 10 16 0.00 0.00
7:51 pm 19:51 Mostly Clear 96 35.6 43 6.1 16 16 ENE 22 35 29.78 1009 10 16 0.00 0.00
8:07 pm 20:07 Clear 90 32 52 11 27 27 ENE 30 48 29.73 1007 10 16 0.00 0.00
8:51 pm 20:51 Partly Cloudy 88 31.1 53 11.7 30 30 ENE 23 37 29.83 1010 10 16 0.00 0.00
9:51 pm 21:51 Partly Cloudy 87 30.6 53 11.7 31 31 E 13 20 29.87 1012 10 16 0.00 0.00
10:51 pm 22:51 Mostly Clear 87 30.6 51 10.6 29 29 E 14 22 29.87 1012 10 16 0.00 0.00
11:51 pm 23:51 Clear 86 30 51 10.6 30 30 E 14 22 29.87 1011 10 16 0.00 0.00

Powered by AerisWeather